Stations météo

Publicité
Rostherne No 2, Grande-Bretagne (3351): Température de l'air & dewpoint: 23.01.2020 17:00:00 - 29.01.2020 17:00:00 (GMT)Rostherne No 2, Grande-Bretagne (3351): Vitesse du vent & gusts: 23.01.2020 17:00:00 - 29.01.2020 17:00:00 (GMT)Rostherne No 2, Grande-Bretagne (3351): Direction du vent: 23.01.2020 17:00:00 - 29.01.2020 17:00:00 (GMT)Rostherne No 2, Grande-Bretagne (3351): reduced air pressure: 23.01.2020 17:00:00 - 29.01.2020 17:00:00 (GMT)Rostherne No 2, Grande-Bretagne (3351): visibility: 23.01.2020 17:00:00 - 29.01.2020 17:00:00 (GMT)Rostherne No 2, Grande-Bretagne (3351): Ensoleillement: 23.01.2020 17:00:00 - 29.01.2020 17:00:00 (GMT)Rostherne No 2, Grande-Bretagne (3351): Quantités de précipitations: 23.01.2020 17:00:00 - 29.01.2020 17:00:00 (GMT)
Date & Time tt [°C] td [°C] ff [km/h] ff [knt] fx [km/h] fx [knt] dd ppp [hPa] vv [km] sd [min] rr [mm]
29.01.2020 17:00:00 8,6 4,3 18 10 - - SW 1004,9 25 0 0,0
29.01.2020 16:00:00 9,0 4,3 18 10 - - WSW 1005,1 27 0 0,0
29.01.2020 15:00:00 8,8 4,2 18 10 - - WSW 1005,3 30 0 0,0
29.01.2020 14:00:00 8,8 4,1 16 9 - - WSW 1005,7 28 6 0,0
29.01.2020 13:00:00 8,7 3,6 21 11 - - WSW 1006,0 26 48 0,0
29.01.2020 12:00:00 8,8 3,8 24 13 - - W 1005,9 30 54 0,0
29.01.2020 11:00:00 7,0 2,3 22 12 - - W 1006,3 30 24 0,0
29.01.2020 10:00:00 5,6 2,4 16 9 - - W 1005,4 30 0 0,0
29.01.2020 09:00:00 4,6 1,5 22 12 - - W 1005,0 30 0 0,0
29.01.2020 08:00:00 4,1 1,6 16 9 52 28 WSW 1004,6 28 0 0,6
29.01.2020 07:00:00 4,7 2,1 28 15 - - W 1003,6 16 0 0,2
29.01.2020 06:00:00 4,3 1,8 26 14 48 26 W 1002,9 11 0 0,2
29.01.2020 05:00:00 4,5 1,8 29 16 46 25 W 1002,3 20 0 0,4
29.01.2020 04:00:00 3,7 2,6 15 8 52 28 W 1001,7 12 0 0,6
29.01.2020 03:00:00 4,4 1,1 24 13 - - W 1001,2 18 0 0,0
29.01.2020 02:00:00 4,6 0,8 15 8 46 25 WSW 1000,6 21 0 0,0
29.01.2020 01:00:00 5,2 1,7 31 17 48 26 W 999,9 19 0 0,0
29.01.2020 00:00:00 5,0 2,6 26 14 50 27 W 999,1 26 - 0,2
28.01.2020 23:00:00 5,1 2,0 31 17 48 26 W 998,5 30 0 0,0
28.01.2020 22:00:00 5,3 1,6 26 14 - - W 998,1 45 0 0,0
28.01.2020 21:00:00 4,7 1,0 11 6 - - SW 997,9 40 0 0,0
28.01.2020 20:00:00 4,9 1,6 22 12 - - W 997,2 40 0 0,0
28.01.2020 19:00:00 4,8 1,3 24 13 - - W 996,5 29 0 0,0
28.01.2020 18:00:00 4,6 1,5 22 12 - - W 995,4 27 0 0,0
28.01.2020 17:00:00 4,7 2,9 22 12 50 27 W 994,2 13 0 0,4
28.01.2020 16:00:00 4,7 2,6 28 15 52 28 W 993,5 7 0 0,2
28.01.2020 15:00:00 4,8 2,6 29 16 63 34 W 992,7 35 0 0,4
28.01.2020 14:00:00 6,1 0,9 22 12 - - W 992,2 50 0 0,0
28.01.2020 13:00:00 6,6 0,9 26 14 - - W 992,1 30 42 0,0
28.01.2020 12:00:00 6,6 1,9 18 10 - - WSW 991,9 25 60 0,0
28.01.2020 11:00:00 5,0 1,6 18 10 - - WSW 991,8 30 42 0,0
28.01.2020 10:00:00 3,1 1,6 13 7 - - WSW 991,3 40 0 0,4
28.01.2020 09:00:00 2,3 0,3 16 9 - - WSW 991,2 4,8 0 0,2
28.01.2020 08:00:00 2,3 0,2 15 8 - - WSW 990,7 45 0 0,0
28.01.2020 07:00:00 2,6 1,2 22 12 - - W 989,9 24 0 0,8
28.01.2020 06:00:00 1,8 0,8 16 9 - - W 989,0 30 0 1,0
28.01.2020 05:00:00 2,3 1,2 16 9 - - WNW 988,4 21 0 0,6
28.01.2020 04:00:00 2,6 1,3 16 9 - - W 987,4 45 0 0,8
28.01.2020 03:00:00 3,3 2,0 18 10 - - W 987,3 45 0 0,2
28.01.2020 02:00:00 3,6 2,5 9 5 - - SW 986,6 30 0 0,0
28.01.2020 01:00:00 3,9 2,8 9 5 - - SSW 986,7 45 0 0,0
28.01.2020 00:00:00 4,3 3,1 15 8 50 27 SSW 986,7 19 - 0,6
27.01.2020 23:00:00 4,5 2,7 13 7 - - S 987,0 35 0 0,0
27.01.2020 22:00:00 4,7 2,8 15 8 - - S 987,5 40 0 0,0
27.01.2020 21:00:00 4,7 2,7 16 9 - - S 988,2 40 0 0,0
27.01.2020 20:00:00 4,3 3,0 13 7 - - SSE 989,3 40 0 0,0
27.01.2020 19:00:00 3,3 1,9 9 5 - - SSE 990,6 40 0 0,0
27.01.2020 18:00:00 4,7 2,8 11 6 - - S 991,4 40 0 0,0
27.01.2020 17:00:00 5,5 2,8 9 5 - - S 992,1 40 0 0,0
27.01.2020 16:00:00 5,8 2,4 11 6 - - S 993,3 45 6 0,0
27.01.2020 15:00:00 6,2 2,5 11 6 - - S 994,1 50 0 0,0
27.01.2020 14:00:00 6,7 2,7 18 10 - - S 994,9 45 0 0,0
27.01.2020 13:00:00 6,5 2,6 15 8 - - S 996,2 50 0 0,0
27.01.2020 12:00:00 5,9 2,7 16 9 - - S 997,2 45 6 0,0
27.01.2020 11:00:00 5,6 2,9 11 6 - - S 998,1 27 0 0,0
27.01.2020 10:00:00 4,8 2,2 13 7 - - S 998,2 45 18 0,0
27.01.2020 09:00:00 3,8 1,8 9 5 - - S 998,5 50 0 0,0
27.01.2020 08:00:00 4,3 2,2 11 6 - - SSW 998,4 50 0 0,0
27.01.2020 07:00:00 5,1 3,2 13 7 - - S 998,4 50 0 0,0
27.01.2020 06:00:00 4,9 3,2 15 8 - - S 998,4 50 0 0,0
27.01.2020 05:00:00 5,1 3,6 11 6 - - SSW 998,6 45 0 0,0
27.01.2020 04:00:00 5,5 3,8 13 7 - - S 998,7 40 0 0,0
27.01.2020 03:00:00 5,5 4,1 15 8 - - S 999,3 35 0 0,0
27.01.2020 02:00:00 5,7 3,7 18 10 - - SSW 999,7 40 0 0,0
27.01.2020 01:00:00 5,4 3,9 15 8 - - S 1000,3 30 0 0,0
27.01.2020 00:00:00 5,1 4,2 15 8 - - S 1001,1 40 - 0,0
26.01.2020 23:00:00 3,7 3,5 8 4 - - S 1001,7 30 0 0,0
26.01.2020 22:00:00 3,7 3,7 8 4 - - S 1002,3 12 0 0,0
26.01.2020 21:00:00 2,2 2,0 5 3 - - S 1002,5 0,2 0 0,0
26.01.2020 20:00:00 3,4 3,0 5 3 - - SE 1003,0 0,6 0 0,0
26.01.2020 19:00:00 5,5 5,1 5 3 - - WNW 1003,3 12 0 0,0
26.01.2020 18:00:00 5,7 5,1 5 3 - - S 1003,1 12 0 0,0
26.01.2020 17:00:00 6,0 5,1 5 3 - - WSW 1003,1 21 0 0,0
26.01.2020 16:00:00 7,3 5,4 5 3 - - W 1003,2 22 0 0,0
26.01.2020 15:00:00 7,8 6,9 8 4 - - WSW 1003,2 40 0 0,8
26.01.2020 14:00:00 8,0 7,2 11 6 - - WSW 1003,1 7 0 1,2
26.01.2020 13:00:00 8,1 6,7 22 12 - - S 1003,0 14 0 0,0
26.01.2020 12:00:00 8,0 5,9 26 14 - - S 1003,4 17 0 0,0
26.01.2020 11:00:00 7,7 5,5 26 14 48 26 S 1003,9 20 0 0,0
26.01.2020 10:00:00 7,7 5,0 24 13 - - S 1004,3 21 0 0,0
26.01.2020 09:00:00 6,9 4,6 22 12 - - S 1005,1 20 0 0,0
26.01.2020 08:00:00 7,0 4,8 21 11 - - S 1005,8 18 0 0,0
26.01.2020 07:00:00 7,4 5,1 18 10 - - S 1006,1 18 0 0,0
26.01.2020 06:00:00 7,5 5,7 16 9 - - S 1006,6 16 0 0,0
26.01.2020 05:00:00 7,3 5,9 15 8 - - S 1007,2 12 0 0,0
26.01.2020 04:00:00 7,3 6,1 15 8 - - S 1007,5 12 0 0,0
26.01.2020 03:00:00 7,3 6,1 15 8 - - S 1008,3 10 0 0,0
26.01.2020 02:00:00 7,1 6,1 16 9 - - S 1008,9 8 0 0,0
26.01.2020 01:00:00 7,1 6,1 15 8 - - S 1009,9 7 0 0,0
26.01.2020 00:00:00 7,2 5,9 9 5 - - S 1010,8 8 - 0,0
25.01.2020 23:00:00 6,8 5,6 11 6 - - S 1011,3 8 0 0,0
25.01.2020 22:00:00 6,6 5,4 11 6 - - S 1012,0 8 0 0,0
25.01.2020 21:00:00 6,5 5,2 11 6 - - S 1012,4 10 0 0,0
25.01.2020 20:00:00 6,3 5,1 15 8 - - S 1013,0 6 0 0,0
25.01.2020 19:00:00 6,3 5,1 15 8 - - S 1013,4 6 0 0,0
25.01.2020 18:00:00 6,1 4,8 11 6 - - S 1013,7 6 0 0,0
25.01.2020 17:00:00 6,1 4,5 9 5 - - S 1014,1 11 0 0,0
25.01.2020 16:00:00 6,0 4,2 9 5 - - S 1014,1 12 0 0,0
25.01.2020 15:00:00 6,0 3,8 8 4 - - S 1014,7 15 0 0,0
25.01.2020 14:00:00 6,0 3,6 11 6 - - S 1015,5 15 0 0,0
25.01.2020 13:00:00 6,1 3,5 13 7 - - S 1016,1 14 0 0,0
25.01.2020 12:00:00 5,8 3,7 15 8 - - SSW 1016,8 13 0 0,0
25.01.2020 11:00:00 5,6 3,9 15 8 - - S 1017,2 18 0 0,0
25.01.2020 10:00:00 5,4 4,4 13 7 - - SSW 1017,3 30 0 0,0
25.01.2020 09:00:00 5,3 4,7 11 6 - - S 1017,1 30 0 0,0
25.01.2020 08:00:00 5,4 5,0 11 6 - - S 1017,0 5 0 0,0
25.01.2020 07:00:00 5,8 5,6 9 5 - - SSW 1017,0 12 0 0,0
25.01.2020 06:00:00 5,9 5,7 5 3 - - SSW 1017,1 4,0 0 0,0
25.01.2020 05:00:00 5,9 5,8 8 4 - - SSW 1017,2 4,6 0 0,2
25.01.2020 04:00:00 6,0 5,9 8 4 - - SSW 1017,6 2,2 0 0,2
25.01.2020 03:00:00 6,1 6,0 5 3 - - SSW 1018,1 2,8 0 0,0
25.01.2020 02:00:00 6,1 6,1 4 2 - - SW 1018,7 2,6 0 0,0
25.01.2020 01:00:00 6,1 6,0 4 2 - - S 1019,1 2,5 0 0,2
25.01.2020 00:00:00 6,2 6,0 2 1 - - SSW 1019,8 1,5 - 0,0
24.01.2020 23:00:00 6,2 5,9 2 1 - - SSW 1020,2 2,4 0 0,0
24.01.2020 22:00:00 6,3 5,8 2 1 - - S 1020,4 4,1 0 0,0
24.01.2020 21:00:00 6,1 5,6 2 1 - - SW 1020,6 7 0 0,0
24.01.2020 20:00:00 6,2 5,6 0 0 - - N 1021,0 10 0 0,0
24.01.2020 19:00:00 6,6 6,0 8 4 - - NW 1021,1 11 0 0,0
24.01.2020 18:00:00 6,6 6,1 5 3 - - WNW 1020,9 10 0 0,2
24.01.2020 17:00:00 6,8 6,2 9 5 - - W 1020,7 5 0 0,0
24.01.2020 16:00:00 7,1 6,5 4 2 - - W 1021,0 10 0 0,0
24.01.2020 15:00:00 7,2 6,6 9 5 - - WNW 1021,3 9 0 0,0
24.01.2020 14:00:00 7,4 6,6 9 5 - - NW 1021,6 8 0 0,0
24.01.2020 13:00:00 7,7 7,1 11 6 - - NW 1021,9 13 0 0,0
24.01.2020 12:00:00 7,8 7,4 9 5 - - NW 1022,4 22 0 0,0
24.01.2020 11:00:00 7,6 7,3 11 6 - - WNW 1022,9 8 0 0,0
24.01.2020 10:00:00 7,4 7,2 11 6 - - WNW 1023,1 2,2 0 0,2
24.01.2020 09:00:00 6,9 6,7 5 3 - - W 1023,1 3,5 0 0,0
24.01.2020 08:00:00 6,7 6,5 9 5 - - W 1022,9 5 0 0,0
24.01.2020 07:00:00 6,8 6,4 11 6 - - W 1022,8 8 0 0,0
24.01.2020 06:00:00 6,7 6,4 8 4 - - W 1022,8 6 0 0,0
24.01.2020 05:00:00 6,8 6,6 9 5 - - W 1023,1 5 0 0,0
24.01.2020 04:00:00 6,7 6,6 9 5 - - W 1023,5 2,5 0 0,0
24.01.2020 03:00:00 6,8 6,7 11 6 - - W 1024,0 3,6 0 0,0
24.01.2020 02:00:00 6,6 6,5 9 5 - - W 1024,7 1,6 0 0,0
24.01.2020 01:00:00 6,5 6,3 5 3 - - W 1025,3 6 0 0,0
24.01.2020 00:00:00 6,5 6,3 4 2 - - WSW 1025,9 9 - 0,0
23.01.2020 23:00:00 6,5 6,4 8 4 - - WNW 1026,5 8 0 0,2
23.01.2020 22:00:00 6,5 6,4 9 5 - - W 1027,0 7 0 0,0
23.01.2020 21:00:00 6,8 6,7 9 5 - - WNW 1027,3 4,7 0 0,0
23.01.2020 20:00:00 7,0 6,9 5 3 - - W 1027,4 0,8 0 0,0
23.01.2020 19:00:00 6,8 6,7 4 2 - - WSW 1027,8 1,9 0 0,0
23.01.2020 18:00:00 6,8 6,6 4 2 - - SSE 1028,1 2,3 0 0,0
23.01.2020 17:00:00 6,9 6,6 5 3 - - S 1028,3 3,3 0 0,0

tt = Température de l'air
td = dewpoint
ff = Vitesse du vent
fx = gusts
dd = Direction du vent
ppp = reduced air pressure
vv = visibility
sd = Ensoleillement
rr = Quantités de précipitations

stations d'obs. à proximité